This demonstration page uses our WeatherBlox Daily Observations layout. Learn more.

Left ArrowRight Arrow

53.62937, 11.41316

Hourly Observations for July 25, 2016

Temp ( °F °C ) Dew Point ( °F °C ) Humidity (%) Winds ( mph kmh ) Pressure ( in mb ) Visibility ( mi km ) Precip ( " mm )
6:20 am 06:20 Mostly Sunny 61 16 61 16 100 100 ENE 3 6 30.03 1017 7 11 N/A
6:50 am 06:50 Mostly Sunny 63 17 63 17 100 100 NE 2 4 30.03 1017 7 11 N/A
7:20 am 07:20 Mostly Sunny 66 19 63 17 88 88 NE 2 4 30.03 1017 7 11 N/A
7:50 am 07:50 Mostly Sunny 72 22 63 17 73 73 VRB 2 4 30.03 1017 7 11 N/A
8:20 am 08:20 Mostly Sunny 72 22 63 17 73 73 VRB 2 4 30.03 1017 7 11 N/A
8:50 am 08:50 Mostly Sunny 75 24 63 17 65 65 VRB 1 2 30.03 1017 7 11 N/A
9:20 am 09:20 Mostly Sunny 77 25 61 16 57 57 VRB 2 4 30.03 1017 7 11 N/A
9:50 am 09:50 Mostly Sunny 81 27 63 17 54 54 VRB 3 6 30.03 1017 7 11 N/A
10:20 am 10:20 Mostly Sunny 82 28 63 17 51 51 VRB 2 4 30.03 1017 7 11 N/A
10:50 am 10:50 Mostly Sunny 82 28 61 16 48 48 VRB 3 6 30.03 1017 7 11 N/A
11:20 am 11:20 Mostly Sunny 82 28 61 16 48 48 WSW 6 9 30.03 1017 7 11 N/A
11:50 am 11:50 Mostly Sunny 81 27 59 15 48 48 WSW 6 9 30.03 1017 7 11 N/A
12:20 pm 12:20 Mostly Sunny 82 28 59 15 45 45 W 7 11 30.03 1017 7 11 N/A
12:50 pm 12:50 Mostly Sunny 82 28 59 15 45 45 W 7 11 30.03 1017 7 11 N/A
1:20 pm 13:20 Mostly Sunny 86 30 59 15 40 40 W 8 13 30.00 1016 7 11 N/A
1:50 pm 13:50 Mostly Sunny 84 29 59 15 43 43 W 5 7 30.00 1016 7 11 N/A
2:20 pm 14:20 Mostly Sunny 84 29 59 15 43 43 W 6 9 30.00 1016 7 11 N/A
2:50 pm 14:50 Mostly Sunny 82 28 61 16 48 48 W 8 13 30.03 1017 7 11 N/A
3:20 pm 15:20 Mostly Sunny 81 27 63 17 54 54 SSE 8 13 30.00 1016 7 11 N/A
3:50 pm 15:50 Mostly Sunny 81 27 63 17 54 54 S 6 9 30.00 1016 7 11 N/A
4:20 pm 16:20 Mostly Sunny 84 29 61 16 45 45 VRB 5 7 30.00 1016 7 11 N/A
4:50 pm 16:50 Mostly Sunny 84 29 59 15 43 43 VRB 3 6 30.00 1016 7 11 N/A
5:20 pm 17:20 Mostly Sunny 84 29 59 15 43 43 S 5 7 30.00 1016 7 11 N/A
5:50 pm 17:50 Mostly Sunny 82 28 61 16 48 48 WNW 5 7 30.00 1016 7 11 N/A
6:20 pm 18:20 Mostly Sunny 82 28 61 16 48 48 NNW 7 11 30.00 1016 7 11 N/A
6:50 pm 18:50 Mostly Sunny 82 28 63 17 51 51 N 3 6 30.00 1016 7 11 N/A

Powered by AerisWeather